Time,TemperatureF,DewpointF,PressureIn,WindDirection,WindDirectionDegrees,WindSpeedMPH,WindSpeedGustMPH,Humidity,HourlyPrecipIn,Conditions,Clouds,dailyrainin,SolarRadiationWatts/m^2,SoftwareType,DateUTC
2013-10-06 00:03:00,44.0,43.0,-100.00,East,88,6.0,15.0,95,0.00,,,0.22,1.000000,,2013-10-06 05:03:00,
2013-10-06 00:43:00,43.0,42.0,-100.00,ENE,66,6.0,12.0,98,0.07,,,0.29,0.000000,,2013-10-06 05:43:00,
2013-10-06 00:52:00,43.0,42.0,-100.00,ENE,66,6.0,12.0,98,0.07,,,0.29,0.000000,,2013-10-06 05:52:00,
2013-10-06 01:02:00,43.0,42.0,-100.00,ENE,66,6.0,12.0,98,0.07,,,0.29,0.000000,,2013-10-06 06:02:00,
2013-10-06 01:12:00,43.0,42.0,-100.00,ENE,66,6.0,12.0,98,0.07,,,0.29,0.000000,,2013-10-06 06:12:00,
2013-10-06 01:42:00,43.0,43.0,-100.00,East,100,4.0,12.0,99,0.04,,,0.33,0.000000,,2013-10-06 06:42:00,
2013-10-06 01:52:00,43.0,43.0,-100.00,East,100,4.0,12.0,99,0.04,,,0.33,0.000000,,2013-10-06 06:52:00,
2013-10-06 02:02:00,43.0,43.0,-100.00,East,100,4.0,12.0,99,0.04,,,0.33,0.000000,,2013-10-06 07:02:00,
2013-10-06 02:11:00,43.0,43.0,-100.00,East,100,4.0,12.0,99,0.04,,,0.33,0.000000,,2013-10-06 07:11:00,
2013-10-06 02:43:00,43.0,43.0,-100.00,North,3,3.0,10.0,99,0.11,,,0.44,0.000000,,2013-10-06 07:43:00,
2013-10-06 02:52:00,43.0,43.0,-100.00,North,3,3.0,10.0,99,0.11,,,0.44,0.000000,,2013-10-06 07:52:00,
2013-10-06 03:03:00,43.0,43.0,-100.00,North,3,3.0,10.0,99,0.11,,,0.44,0.000000,,2013-10-06 08:03:00,
2013-10-06 03:11:00,43.0,43.0,-100.00,North,3,3.0,10.0,99,0.11,,,0.44,0.000000,,2013-10-06 08:11:00,
2013-10-06 03:42:00,43.0,43.0,-100.00,North,356,4.0,7.0,100,0.15,,,0.57,0.000000,,2013-10-06 08:42:00,
2013-10-06 03:53:00,43.0,43.0,-100.00,North,356,4.0,7.0,100,0.15,,,0.57,0.000000,,2013-10-06 08:53:00,
2013-10-06 04:01:00,43.0,43.0,-100.00,North,356,4.0,7.0,100,0.15,,,0.57,0.000000,,2013-10-06 09:01:00,
2013-10-06 04:11:00,43.0,43.0,-100.00,North,356,4.0,7.0,100,0.15,,,0.57,0.000000,,2013-10-06 09:11:00,
2013-10-06 04:13:00,43.0,43.0,-100.00,NNE,24,5.0,10.0,100,0.08,,,0.62,0.000000,,2013-10-06 09:13:00,
2013-10-06 04:43:00,43.0,43.0,-100.00,NNE,24,5.0,10.0,100,0.08,,,0.62,0.000000,,2013-10-06 09:43:00,
2013-10-06 04:53:00,43.0,43.0,-100.00,NNE,24,5.0,10.0,100,0.08,,,0.62,0.000000,,2013-10-06 09:53:00,
2013-10-06 05:03:00,43.0,43.0,-100.00,NNE,24,5.0,10.0,100,0.08,,,0.62,0.000000,,2013-10-06 10:03:00,
2013-10-06 05:43:00,43.0,43.0,-100.00,East,80,4.0,16.0,100,0.10,,,0.70,0.000000,,2013-10-06 10:43:00,
2013-10-06 05:53:00,43.0,43.0,-100.00,East,80,4.0,16.0,100,0.10,,,0.70,0.000000,,2013-10-06 10:53:00,
2013-10-06 06:02:00,43.0,43.0,-100.00,East,80,4.0,16.0,100,0.10,,,0.70,0.000000,,2013-10-06 11:02:00,
2013-10-06 06:12:00,43.0,43.0,-100.00,East,80,4.0,16.0,100,0.10,,,0.70,0.000000,,2013-10-06 11:12:00,
2013-10-06 06:42:00,43.0,43.0,-100.00,NNW,335,5.0,8.0,100,0.01,,,0.62,0.000000,,2013-10-06 11:42:00,
2013-10-06 06:52:00,43.0,43.0,-100.00,NNW,335,5.0,8.0,100,0.01,,,0.62,0.000000,,2013-10-06 11:52:00,
2013-10-06 07:02:00,43.0,43.0,-100.00,NNW,335,5.0,8.0,100,0.01,,,0.62,0.000000,,2013-10-06 12:02:00,
2013-10-06 07:12:00,43.0,43.0,-100.00,NNW,335,5.0,8.0,100,0.01,,,0.62,0.000000,,2013-10-06 12:12:00,
2013-10-06 07:42:00,42.0,42.0,-100.00,NNW,336,7.0,12.0,100,0.02,,,0.59,1.000000,,2013-10-06 12:42:00,
2013-10-06 07:52:00,42.0,42.0,-100.00,NNW,336,7.0,12.0,100,0.02,,,0.59,1.000000,,2013-10-06 12:52:00,
2013-10-06 08:02:00,42.0,42.0,-100.00,NNW,336,7.0,12.0,100,0.02,,,0.59,1.000000,,2013-10-06 13:02:00,
2013-10-06 08:11:00,42.0,42.0,-100.00,NNW,336,7.0,12.0,100,0.02,,,0.59,1.000000,,2013-10-06 13:11:00,
2013-10-06 08:42:00,42.0,42.0,-100.00,NNW,337,8.0,13.0,100,0.00,,,0.58,31.000000,,2013-10-06 13:42:00,
2013-10-06 08:52:00,42.0,42.0,-100.00,NNW,337,8.0,13.0,100,0.00,,,0.58,31.000000,,2013-10-06 13:52:00,
2013-10-06 09:02:00,42.0,42.0,-100.00,NNW,337,8.0,13.0,100,0.00,,,0.58,31.000000,,2013-10-06 14:02:00,
2013-10-06 09:11:00,42.0,42.0,-100.00,NNW,337,8.0,13.0,100,0.00,,,0.58,31.000000,,2013-10-06 14:11:00,
2013-10-06 09:42:00,43.0,43.0,-100.00,NNW,334,9.0,15.0,100,0.00,,,0.58,118.000000,,2013-10-06 14:42:00,
2013-10-06 09:52:00,43.0,43.0,-100.00,NNW,334,9.0,15.0,100,0.00,,,0.58,118.000000,,2013-10-06 14:52:00,
2013-10-06 10:02:00,43.0,43.0,-100.00,NNW,334,9.0,15.0,100,0.00,,,0.58,118.000000,,2013-10-06 15:02:00,
2013-10-06 10:11:00,43.0,43.0,-100.00,NNW,334,9.0,15.0,100,0.00,,,0.58,118.000000,,2013-10-06 15:11:00,
2013-10-06 10:44:00,45.0,45.0,-100.00,NNW,347,6.0,15.0,99,0.00,,,0.58,244.000000,,2013-10-06 15:44:00,
2013-10-06 10:54:00,45.0,45.0,-100.00,NNW,347,6.0,15.0,99,0.00,,,0.58,244.000000,,2013-10-06 15:54:00,
2013-10-06 11:03:00,45.0,45.0,-100.00,NNW,347,6.0,15.0,99,0.00,,,0.58,244.000000,,2013-10-06 16:03:00,
2013-10-06 11:12:00,45.0,45.0,-100.00,NNW,347,6.0,15.0,99,0.00,,,0.58,244.000000,,2013-10-06 16:12:00,
2013-10-06 11:43:00,45.0,43.0,-100.00,NNW,344,6.0,12.0,91,0.00,,,0.58,353.000000,,2013-10-06 16:43:00,
2013-10-06 11:53:00,45.0,43.0,-100.00,NNW,344,6.0,12.0,91,0.00,,,0.58,353.000000,,2013-10-06 16:53:00,
2013-10-06 12:02:00,45.0,43.0,-100.00,NNW,344,6.0,12.0,91,0.00,,,0.58,353.000000,,2013-10-06 17:02:00,
2013-10-06 12:12:00,45.0,43.0,-100.00,NNW,344,6.0,12.0,91,0.00,,,0.58,353.000000,,2013-10-06 17:12:00,
2013-10-06 12:42:00,45.0,43.0,-100.00,NNW,332,6.0,12.0,92,0.00,,,0.58,187.000000,,2013-10-06 17:42:00,
2013-10-06 12:52:00,45.0,43.0,-100.00,NNW,332,6.0,12.0,92,0.00,,,0.58,187.000000,,2013-10-06 17:52:00,
2013-10-06 13:02:00,45.0,43.0,-100.00,NNW,332,6.0,12.0,92,0.00,,,0.58,187.000000,,2013-10-06 18:02:00,
2013-10-06 13:12:00,45.0,43.0,-100.00,NNW,332,6.0,12.0,92,0.00,,,0.58,187.000000,,2013-10-06 18:12:00,
2013-10-06 13:43:00,43.0,42.0,-100.00,NNW,336,6.0,13.0,95,0.00,,,0.58,122.000000,,2013-10-06 18:43:00,
2013-10-06 13:52:00,43.0,42.0,-100.00,NNW,336,6.0,13.0,95,0.00,,,0.58,122.000000,,2013-10-06 18:52:00,
2013-10-06 14:01:00,43.0,42.0,-100.00,NNW,336,6.0,13.0,95,0.00,,,0.58,122.000000,,2013-10-06 19:01:00,
2013-10-06 14:11:00,43.0,42.0,-100.00,NNW,336,6.0,13.0,95,0.00,,,0.58,122.000000,,2013-10-06 19:11:00,
2013-10-06 14:42:00,43.0,42.0,-100.00,NW,324,6.0,13.0,97,0.00,,,0.58,60.000000,,2013-10-06 19:42:00,
2013-10-06 14:53:00,43.0,42.0,-100.00,NW,324,6.0,13.0,97,0.00,,,0.58,60.000000,,2013-10-06 19:53:00,
2013-10-06 15:02:00,43.0,42.0,-100.00,NW,324,6.0,13.0,97,0.00,,,0.58,60.000000,,2013-10-06 20:02:00,
2013-10-06 15:11:00,43.0,42.0,-100.00,NW,324,6.0,13.0,97,0.00,,,0.58,60.000000,,2013-10-06 20:11:00,
2013-10-06 15:42:00,44.0,43.0,-100.00,NW,325,9.0,15.0,98,0.01,,,0.59,88.000000,,2013-10-06 20:42:00,
2013-10-06 15:52:00,44.0,43.0,-100.00,NW,325,9.0,15.0,98,0.01,,,0.59,88.000000,,2013-10-06 20:52:00,
2013-10-06 16:01:00,44.0,43.0,-100.00,NW,325,9.0,15.0,98,0.01,,,0.59,88.000000,,2013-10-06 21:01:00,
2013-10-06 16:11:00,44.0,43.0,-100.00,NW,325,9.0,15.0,98,0.01,,,0.59,88.000000,,2013-10-06 21:11:00,
2013-10-06 16:13:00,44.0,43.0,-100.00,NW,322,9.0,15.0,98,0.00,,,0.59,69.000000,,2013-10-06 21:13:00,
2013-10-06 16:44:00,44.0,43.0,-100.00,NW,322,9.0,15.0,98,0.00,,,0.59,69.000000,,2013-10-06 21:44:00,
2013-10-06 16:55:00,44.0,43.0,-100.00,NW,322,9.0,15.0,98,0.00,,,0.59,69.000000,,2013-10-06 21:55:00,
2013-10-06 17:04:00,44.0,43.0,-100.00,NW,322,9.0,15.0,98,0.00,,,0.59,69.000000,,2013-10-06 22:04:00,
2013-10-06 17:43:00,45.0,44.0,-100.00,NNW,327,8.0,19.0,97,0.00,,,0.59,52.000000,,2013-10-06 22:43:00,
2013-10-06 17:54:00,45.0,44.0,-100.00,NNW,327,8.0,19.0,97,0.00,,,0.59,52.000000,,2013-10-06 22:54:00,
2013-10-06 18:03:00,45.0,44.0,-100.00,NNW,327,8.0,19.0,97,0.00,,,0.59,52.000000,,2013-10-06 23:03:00,
2013-10-06 18:12:00,45.0,44.0,-100.00,NNW,327,8.0,19.0,97,0.00,,,0.59,52.000000,,2013-10-06 23:12:00,
2013-10-06 18:42:00,45.0,42.0,-100.00,NNW,328,9.0,16.0,90,0.00,,,0.59,37.000000,,2013-10-06 23:42:00,
2013-10-06 18:53:00,45.0,42.0,-100.00,NNW,328,9.0,16.0,90,0.00,,,0.59,37.000000,,2013-10-06 23:53:00,
2013-10-06 19:02:00,45.0,42.0,-100.00,NNW,328,9.0,16.0,90,0.00,,,0.59,37.000000,,2013-10-07 00:02:00,
2013-10-06 19:12:00,45.0,42.0,-100.00,NNW,328,9.0,16.0,90,0.00,,,0.59,37.000000,,2013-10-07 00:12:00,
2013-10-06 19:42:00,44.0,42.0,-100.00,NW,318,7.0,17.0,93,0.00,,,0.59,4.000000,,2013-10-07 00:42:00,
2013-10-06 19:52:00,44.0,42.0,-100.00,NW,318,7.0,17.0,93,0.00,,,0.59,4.000000,,2013-10-07 00:52:00,
2013-10-06 20:02:00,44.0,42.0,-100.00,NW,318,7.0,17.0,93,0.00,,,0.59,4.000000,,2013-10-07 01:02:00,
2013-10-06 20:11:00,44.0,42.0,-100.00,NW,318,7.0,17.0,93,0.00,,,0.59,4.000000,,2013-10-07 01:11:00,
2013-10-06 20:42:00,42.0,41.0,-100.00,NW,315,6.0,12.0,97,0.00,,,0.59,0.000000,,2013-10-07 01:42:00,
2013-10-06 20:53:00,42.0,41.0,-100.00,NW,315,6.0,12.0,97,0.00,,,0.59,0.000000,,2013-10-07 01:53:00,
2013-10-06 21:02:00,42.0,41.0,-100.00,NW,315,6.0,12.0,97,0.00,,,0.59,0.000000,,2013-10-07 02:02:00,
2013-10-06 21:12:00,42.0,41.0,-100.00,NW,315,6.0,12.0,97,0.00,,,0.59,0.000000,,2013-10-07 02:12:00,
2013-10-06 21:42:00,41.0,41.0,-100.00,NW,307,6.0,9.0,99,0.00,,,0.59,0.000000,,2013-10-07 02:42:00,
2013-10-06 21:53:00,41.0,41.0,-100.00,NW,307,6.0,9.0,99,0.00,,,0.59,0.000000,,2013-10-07 02:53:00,
2013-10-06 22:02:00,41.0,41.0,-100.00,NW,307,6.0,9.0,99,0.00,,,0.59,0.000000,,2013-10-07 03:02:00,
2013-10-06 22:12:00,41.0,41.0,-100.00,NW,307,6.0,9.0,99,0.00,,,0.59,0.000000,,2013-10-07 03:12:00,
2013-10-06 22:13:00,41.0,41.0,-100.00,WNW,296,5.0,10.0,99,0.00,,,0.59,0.000000,,2013-10-07 03:13:00,
2013-10-06 22:44:00,41.0,41.0,-100.00,WNW,296,5.0,10.0,99,0.00,,,0.59,0.000000,,2013-10-07 03:44:00,
2013-10-06 22:54:00,41.0,41.0,-100.00,WNW,296,5.0,10.0,99,0.00,,,0.59,0.000000,,2013-10-07 03:54:00,
2013-10-06 23:04:00,41.0,41.0,-100.00,WNW,296,5.0,10.0,99,0.00,,,0.59,0.000000,,2013-10-07 04:04:00,
2013-10-06 23:13:00,42.0,42.0,-100.00,WNW,285,4.0,9.0,99,0.00,,,0.59,0.000000,,2013-10-07 04:13:00,
2013-10-06 23:44:00,42.0,42.0,-100.00,WNW,285,4.0,9.0,99,0.00,,,0.59,0.000000,,2013-10-07 04:44:00,
2013-10-06 23:53:00,42.0,42.0,-100.00,WNW,285,4.0,9.0,99,0.00,,,0.59,0.000000,,2013-10-07 04:53:00,